Location: Newark
(17.9939°S, 31.0481°E)
Time: 05:10:27
(UTC+00:00)

Courier 1B - Pass Details

Date: 21 November 2019
Orbit: 963 x 1209 km, 28.3° (Epoch: 07 December)

Event Time Altitude Azimuth Distance (km) Brightness Sun altitude
Rises 19:48:25 0° 246° (WSW) 4,061 11.4 -42.9°
Reaches altitude 10° 19:51:14 10° 245° (WSW) 3,118 10.6 -43.3°
Enters shadow 19:55:07 33° 240° (WSW) 1,904 9.2 -43.9°
